TimeCDT,TemperatureF,Dew PointF,Humidity,Sea Level PressureIn,VisibilityMPH,Wind Direction,Wind SpeedMPH,Gust SpeedMPH,PrecipitationIn,Events,Conditions,WindDirDegrees,DateUTC
12:13 AM,33.8,28.4,81,30.23,10.0,NNW,17.3,23.0,N/A,,Mostly Cloudy,340,2012-10-06 05:13:00
12:33 AM,33.8,28.4,81,30.23,10.0,North,15.0,20.7,N/A,,Overcast,350,2012-10-06 05:33:00
12:52 AM,33.8,28.4,81,30.23,10.0,North,15.0,-,N/A,,Overcast,350,2012-10-06 05:52:00
1:13 AM,35.6,28.4,75,30.23,10.0,North,16.1,21.9,N/A,,Overcast,350,2012-10-06 06:13:00
1:33 AM,33.8,28.4,81,30.23,10.0,North,12.7,-,N/A,,Overcast,350,2012-10-06 06:33:00
1:52 AM,33.8,28.4,81,30.23,10.0,North,15.0,-,N/A,,Overcast,350,2012-10-06 06:52:00
2:13 AM,33.8,28.4,81,30.23,10.0,North,13.8,-,N/A,,Overcast,350,2012-10-06 07:13:00
2:33 AM,33.8,28.4,81,30.24,10.0,North,10.4,-,N/A,,Mostly Cloudy,360,2012-10-06 07:33:00
2:52 AM,33.8,28.4,81,30.24,10.0,North,11.5,-,N/A,,Overcast,350,2012-10-06 07:52:00
3:13 AM,33.8,28.4,81,30.24,10.0,North,10.4,-,N/A,,Overcast,350,2012-10-06 08:13:00
3:33 AM,33.8,28.4,81,30.24,10.0,North,11.5,17.3,N/A,,Overcast,350,2012-10-06 08:33:00
3:52 AM,33.8,28.4,81,30.24,10.0,North,11.5,19.6,N/A,,Overcast,350,2012-10-06 08:52:00
4:13 AM,33.8,28.4,81,30.24,10.0,North,17.3,23.0,N/A,,Overcast,350,2012-10-06 09:13:00
4:32 AM,33.8,28.4,81,30.24,10.0,North,15.0,-,N/A,,Overcast,350,2012-10-06 09:32:00
4:53 AM,33.8,28.4,81,30.25,10.0,North,12.7,20.7,N/A,,Overcast,350,2012-10-06 09:53:00
5:13 AM,33.8,28.4,81,30.25,10.0,North,11.5,-,N/A,,Overcast,350,2012-10-06 10:13:00
5:32 AM,33.8,28.4,81,30.26,10.0,North,11.5,20.7,N/A,,Overcast,360,2012-10-06 10:32:00
5:53 AM,33.8,28.4,81,30.26,10.0,North,12.7,17.3,N/A,,Overcast,360,2012-10-06 10:53:00
6:13 AM,33.8,28.4,81,30.26,10.0,North,11.5,19.6,N/A,,Overcast,360,2012-10-06 11:13:00
6:32 AM,33.8,28.4,81,30.27,10.0,North,11.5,-,N/A,,Overcast,360,2012-10-06 11:32:00
6:53 AM,33.8,28.4,81,30.28,10.0,North,12.7,-,N/A,,Overcast,360,2012-10-06 11:53:00
7:13 AM,33.8,28.4,81,30.28,10.0,North,12.7,-,N/A,,Overcast,360,2012-10-06 12:13:00
7:32 AM,33.8,28.4,81,30.29,10.0,North,12.7,16.1,N/A,,Overcast,350,2012-10-06 12:32:00
7:53 AM,33.8,28.4,81,30.29,10.0,North,12.7,-,N/A,,Overcast,360,2012-10-06 12:53:00
8:32 AM,33.8,28.4,81,30.31,10.0,North,11.5,-,N/A,,Overcast,350,2012-10-06 13:32:00
8:53 AM,33.8,28.4,81,30.32,10.0,North,12.7,-,N/A,,Overcast,350,2012-10-06 13:53:00
9:13 AM,33.8,28.4,81,30.32,10.0,North,17.3,-,N/A,,Overcast,350,2012-10-06 14:13:00
9:32 AM,35.6,28.4,75,30.33,10.0,North,16.1,20.7,N/A,,Overcast,350,2012-10-06 14:32:00
9:53 AM,35.6,26.6,70,30.34,10.0,North,15.0,-,N/A,,Overcast,350,2012-10-06 14:53:00
10:13 AM,37.4,26.6,65,30.34,10.0,North,15.0,-,N/A,,Overcast,360,2012-10-06 15:13:00
10:32 AM,37.4,26.6,65,30.34,10.0,North,12.7,18.4,N/A,,Overcast,10,2012-10-06 15:32:00
10:53 AM,39.2,26.6,61,30.34,10.0,North,16.1,20.7,N/A,,Overcast,350,2012-10-06 15:53:00
11:12 AM,39.2,26.6,61,30.34,10.0,North,12.7,-,N/A,,Overcast,350,2012-10-06 16:12:00
11:33 AM,39.2,24.8,56,30.34,10.0,NNE,11.5,17.3,N/A,,Overcast,30,2012-10-06 16:33:00
11:53 AM,37.4,24.8,60,30.34,10.0,North,12.7,-,N/A,,Overcast,360,2012-10-06 16:53:00
12:12 PM,39.2,24.8,56,30.34,10.0,North,12.7,-,N/A,,Overcast,360,2012-10-06 17:12:00
12:33 PM,39.2,24.8,56,30.34,10.0,North,11.5,-,N/A,,Overcast,360,2012-10-06 17:33:00
12:53 PM,39.2,24.8,56,30.34,10.0,North,11.5,-,N/A,,Overcast,10,2012-10-06 17:53:00
1:12 PM,39.2,24.8,56,30.33,10.0,NNE,9.2,16.1,N/A,,Overcast,20,2012-10-06 18:12:00
1:33 PM,41.0,24.8,53,30.33,10.0,North,9.2,-,N/A,,Mostly Cloudy,360,2012-10-06 18:33:00
1:52 PM,39.2,24.8,56,30.32,10.0,North,10.4,-,N/A,,Overcast,360,2012-10-06 18:52:00
2:13 PM,41.0,24.8,53,30.32,10.0,NNW,12.7,20.7,N/A,,Overcast,340,2012-10-06 19:13:00
2:33 PM,42.8,24.8,49,30.31,10.0,North,9.2,-,N/A,,Overcast,360,2012-10-06 19:33:00
2:52 PM,42.8,24.8,49,30.30,10.0,North,6.9,10.4,N/A,,Overcast,360,2012-10-06 19:52:00
3:13 PM,42.8,23.0,46,30.29,10.0,NNE,10.4,17.3,N/A,,Overcast,20,2012-10-06 20:13:00
3:33 PM,42.8,23.0,46,30.29,10.0,NNE,5.8,-,N/A,,Overcast,20,2012-10-06 20:33:00
3:52 PM,42.8,23.0,46,30.28,10.0,North,9.2,-,N/A,,Overcast,10,2012-10-06 20:52:00
4:13 PM,44.6,24.8,46,30.28,10.0,North,9.2,17.3,N/A,,Mostly Cloudy,350,2012-10-06 21:13:00
4:33 PM,41.0,23.0,49,30.27,10.0,North,8.1,-,N/A,,Mostly Cloudy,10,2012-10-06 21:33:00
4:52 PM,44.6,23.0,43,30.27,10.0,North,8.1,-,N/A,,Mostly Cloudy,360,2012-10-06 21:52:00
5:13 PM,42.8,21.2,42,30.27,10.0,North,9.2,-,N/A,,Scattered Clouds,350,2012-10-06 22:13:00
5:32 PM,42.8,21.2,42,30.26,10.0,North,6.9,-,N/A,,Clear,360,2012-10-06 22:32:00
5:53 PM,42.8,21.2,42,30.26,10.0,North,6.9,-,N/A,,Clear,350,2012-10-06 22:53:00
6:13 PM,41.0,21.2,45,30.27,10.0,North,8.1,-,N/A,,Clear,360,2012-10-06 23:13:00
6:32 PM,39.2,21.2,49,30.26,10.0,North,4.6,-,N/A,,Clear,360,2012-10-06 23:32:00
6:53 PM,35.6,21.2,56,30.26,10.0,NNW,5.8,-,N/A,,Clear,340,2012-10-06 23:53:00
7:13 PM,32.0,21.2,64,30.27,10.0,NNW,4.6,-,N/A,,Clear,340,2012-10-07 00:13:00
7:32 PM,30.2,19.4,64,30.27,10.0,NNW,3.5,-,N/A,,Clear,340,2012-10-07 00:32:00
7:53 PM,26.6,17.6,69,30.27,10.0,NNW,4.6,-,N/A,,Clear,330,2012-10-07 00:53:00
8:12 PM,26.6,19.4,74,30.27,10.0,WNW,4.6,-,N/A,,Clear,300,2012-10-07 01:12:00
8:32 PM,26.6,17.6,69,30.27,10.0,WNW,4.6,-,N/A,,Clear,300,2012-10-07 01:32:00
8:53 PM,24.8,17.6,74,30.27,10.0,WNW,4.6,-,N/A,,Clear,300,2012-10-07 01:53:00
9:12 PM,24.8,17.6,74,30.27,10.0,WNW,3.5,-,N/A,,Clear,290,2012-10-07 02:12:00
9:32 PM,23.0,15.8,74,30.26,10.0,West,3.5,-,N/A,,Clear,280,2012-10-07 02:32:00
9:53 PM,24.8,17.6,74,30.26,10.0,West,3.5,-,N/A,,Clear,270,2012-10-07 02:53:00
10:12 PM,23.0,17.6,80,30.26,10.0,WSW,3.5,-,N/A,,Clear,250,2012-10-07 03:12:00
10:33 PM,21.2,17.6,86,30.26,10.0,West,3.5,-,N/A,,Clear,260,2012-10-07 03:33:00
10:53 PM,21.2,17.6,86,30.25,10.0,Calm,Calm,-,N/A,,Clear,0,2012-10-07 03:53:00
11:12 PM,23.0,17.6,80,30.25,10.0,WSW,3.5,-,N/A,,Clear,240,2012-10-07 04:12:00
11:33 PM,23.0,17.6,80,30.24,10.0,Calm,Calm,-,N/A,,Clear,0,2012-10-07 04:33:00